[[{"header":{"parameterUnit":"m.s-1","parameterCategory":1,"la1":30.2992,"la2":30.254,"lo1":-89.0895,"lo2":-89.0443,"dy":0.0025,"dx":0.0025,"nx":19,"ny":19,"refTime":"2026-03-14T09:00:00:Z","depth":0,"parameterNumber":2,"parameterNumberName":"U-component_of_WINDS"},"data":[0,0,0,-3.4445,-3.4449,-3.4637,-3.4638,-3.4888,-3.4891,0,0,0,0,0,0,0,0,0,0,0,-3.4393,-3.4395,-3.4444,-3.4449,-3.4637,-3.4638,-3.4888,-3.4891,0,0,0,0,0,0,0,0,0,0,0,-3.4392,-3.4394,-3.4396,-3.445,-3.4637,-3.4638,-3.4887,-3.4742,0,0,0,0,0,0,0,0,0,0,-3.4558,-3.4513,-3.4394,-3.4397,-3.4451,-3.4637,-3.4638,-3.4735,-3.4751,-3.4807,0,-3.4855,0,-3.4877,-3.4908,-3.4909,0,0,0,-3.4447,-3.45,-3.4547,-3.4397,-3.4453,-3.4637,-3.4552,-3.4744,-3.4762,-3.4828,-3.4859,-3.4868,-3.4881,-3.4909,-3.4911,-3.5236,-3.5238,0,0,-3.4436,-3.4429,-3.4535,-3.4559,-3.4529,-3.4546,-3.4557,-3.4755,-3.4788,-3.486,-3.4874,-3.4885,-3.4911,-3.4913,-3.5235,-3.5237,0,0,0,-3.4408,-3.4422,-3.4464,-3.4549,-3.4582,-3.4551,-3.4565,-3.478,-3.4794,-3.4876,-3.4888,-3.4913,-3.4916,-3.5233,-3.5236,-3.531,0,0,0,-3.4402,-3.4405,-3.446,-3.4457,-3.4579,-3.4683,-3.4585,-3.478,-3.4803,-3.4887,-3.4913,-3.4918,-3.5231,-3.5234,-3.5304,-3.5346,0,0,0,-3.4379,-3.4403,-3.4431,-3.4456,-3.4537,-3.468,-3.4705,-3.4785,-3.481,-3.4909,-3.4919,-3.523,-3.5234,-3.5299,-3.5337,-3.5431,0,0,0,-3.4353,-3.4494,-3.4432,-3.4595,-3.4535,-3.4724,-3.4704,-3.4845,-3.4939,-3.4914,-3.5231,-3.5235,-3.5297,-3.5332,-3.5425,-3.5507,-3.5541,0,0,-3.4527,-3.4515,-3.4611,-3.4561,-3.4759,-3.4696,-3.4906,-3.4998,-3.5015,-3.5162,-3.517,-3.5306,-3.5337,-3.5429,-3.5733,-3.5759,0,0,0,-3.4663,-3.4732,-3.4786,-3.4875,-3.4949,-3.5017,-3.5078,-3.5113,-3.5239,-3.5088,-3.5365,-3.5384,-3.5438,-3.5478,-3.5501,-3.5549,-3.5253,-3.5253,-3.5253,-3.4897,-3.4911,-3.5072,-3.511,-3.5196,-3.526,-3.5332,-3.539,-3.5378,-3.5444,-3.5487,-3.5669,-3.5716,-3.5733,-3.5783,-3.5532,-3.5532,-3.5533,-3.5533,-3.5153,-3.5253,-3.5237,-3.5386,-3.5401,-3.5528,-3.5596,-3.5584,-3.5706,-3.5637,-3.5686,-3.5609,-3.5761,-3.5806,-3.5539,-3.5538,-3.5537,-3.5536,-3.5536,-3.5307,-3.5358,-3.5399,-3.553,-3.5631,-3.5665,-3.5783,-3.5793,-3.5803,-3.5851,-3.5899,-3.5898,-3.5899,-3.5873,-3.5874,-3.5875,-3.5875,-3.5876,-3.5876,-3.5451,-3.5495,-3.5592,-3.5686,-3.5745,-3.5825,-3.5893,-3.5953,-3.6022,-3.602,-3.602,-3.6003,-3.5773,-3.5716,-3.5886,-3.5884,-3.5883,-3.5882,-3.5881,-3.5704,-3.565,-3.58,-3.586,-3.5972,-3.6073,-3.6085,-3.6206,-3.6257,-3.6316,-3.629,-3.6118,-3.6107,-3.6089,-3.6041,-3.6285,-3.6285,-3.6285,-3.6285,-3.5835,-3.583,-3.5988,-3.6084,-3.6179,-3.6206,-3.6379,-3.6435,-3.6484,-3.6518,-3.6484,-3.6422,-3.6403,-3.6403,-3.6378,-3.6333,-3.6647,-3.6647,-3.6648,-3.5992,-3.5998,-3.6141,-3.6188,-3.6277,-3.6355,-3.6519,-3.6632,-3.6676,-3.6662,-3.6544,-3.6529,-3.6429,-3.6395,-3.6377,-3.6338,-3.6257,0,0]},{"header":{"parameterUnit":"m.s-1","parameterCategory":1,"la1":30.2992,"la2":30.254,"lo1":-89.0895,"lo2":-89.0443,"dy":0.0025,"dx":0.0025,"nx":19,"ny":19,"refTime":"2026-03-14T09:00:00:Z","depth":0,"parameterNumber":3,"parameterNumberName":"V-component_of_WINDS"},"data":[0,0,0,2.1477,2.1475,2.1409,2.1409,2.1325,2.1324,0,0,0,0,0,0,0,0,0,0,0,2.15,2.15,2.1477,2.1475,2.1409,2.1409,2.1325,2.1324,0,0,0,0,0,0,0,0,0,0,0,2.15,2.15,2.1499,2.1475,2.1409,2.1409,2.1325,2.1374,0,0,0,0,0,0,0,0,0,0,2.1438,2.1464,2.15,2.1499,2.1475,2.1409,2.1409,2.1376,2.1371,2.1356,0,2.1346,0,2.1334,2.1319,2.1318,0,0,0,2.1472,2.1468,2.1447,2.1499,2.1474,2.1409,2.1438,2.1373,2.1367,2.1349,2.1345,2.1342,2.1333,2.1318,2.1318,2.125,2.1249,0,0,2.1476,2.1489,2.1452,2.1444,2.1458,2.144,2.1436,2.137,2.1365,2.1345,2.134,2.1331,2.1318,2.1317,2.125,2.1249,0,0,0,2.1488,2.1492,2.1473,2.1447,2.1436,2.1438,2.1434,2.1368,2.1361,2.1339,2.133,2.1317,2.1316,2.125,2.125,2.1256,0,0,0,2.149,2.1499,2.1474,2.1482,2.1437,2.1402,2.1434,2.1366,2.1358,2.1331,2.1317,2.1315,2.125,2.125,2.1256,2.1255,0,0,0,2.1503,2.1501,2.1493,2.1483,2.1455,2.1402,2.1391,2.1363,2.1352,2.1318,2.1315,2.125,2.125,2.1256,2.1256,2.1241,0,0,0,2.152,2.1498,2.1493,2.1466,2.1456,2.1408,2.1392,2.1354,2.1326,2.1317,2.125,2.125,2.1256,2.1256,2.1241,2.123,2.1227,0,0,2.15,2.1497,2.1479,2.1473,2.1429,2.1417,2.1373,2.1333,2.1315,2.1272,2.127,2.1256,2.1256,2.1241,2.1209,2.1207,0,0,0,2.1478,2.1465,2.1451,2.1426,2.1396,2.1369,2.1335,2.132,2.1282,2.1297,2.1246,2.1246,2.1237,2.123,2.1229,2.1219,2.1248,2.1248,2.1248,2.1469,2.145,2.1419,2.1392,2.1368,2.1332,2.131,2.1283,2.1269,2.1258,2.1244,2.1228,2.1221,2.122,2.121,2.1238,2.1238,2.1238,2.1238,2.1438,2.1416,2.1401,2.1365,2.1344,2.1313,2.1277,2.1269,2.1235,2.1236,2.1227,2.1229,2.1218,2.1208,2.1238,2.1238,2.1238,2.1238,2.1238,2.1429,2.1415,2.1399,2.136,2.1331,2.1303,2.1272,2.1254,2.1236,2.1227,2.1209,2.1209,2.1205,2.122,2.122,2.122,2.122,2.122,2.122,2.1426,2.1407,2.1384,2.1351,2.1332,2.1304,2.1268,2.1247,2.1219,2.1208,2.1208,2.1194,2.1222,2.1228,2.1219,2.1219,2.1219,2.1219,2.1219,2.1399,2.1403,2.1368,2.1348,2.1307,2.1278,2.1256,2.1215,2.1195,2.118,2.1169,2.1193,2.1186,2.1188,2.1193,2.1174,2.1174,2.1174,2.1174,2.1391,2.1387,2.1346,2.1317,2.1285,2.1261,2.1219,2.1189,2.1159,2.1145,2.1145,2.115,2.1153,2.1145,2.1147,2.1151,2.1123,2.1123,2.1123,2.1373,2.1365,2.1334,2.1307,2.1272,2.1242,2.1201,2.1165,2.1131,2.112,2.1133,2.1135,2.1144,2.1148,2.1137,2.1141,2.1148,0,0]}]]